Regional Weather Roundup
Issued by NWS

Home | Current Version | Previous Version | Text Only | Print | Product List | Glossary Off
Versions: 1 2 3 4 5 6 7 8 9 10 11 12 13 14 15 16 17 18 19 20 21 22 23 24 25 26 27 28 29 30 31 32 33 34 35 36 37 38 39 40 41 42 43 44 45 46 47 48 49 50

000
ASUS43 KLMK 240902
RWRKY
KENTUCKY REGIONAL WEATHER ROUNDUP
NATIONAL WEATHER SERVICE LOUISVILLE KY
500 AM EDT THU APR 24 2014

NOTE "FAIR" INDICATES FEW OR NO CLOUDS BELOW 12,000 FEET
WITH NO SIGNIFICANT WEATHER AND/OR OBSTRUCTIONS TO VISIBILITY.

KYZ001>023-026-027-061>063-070>075-241000-
WESTERN AND SOUTH CENTRAL KENTUCKY

CITY           SKY/WX    TMP DP  RH WIND       PRES   REMARKS
PADUCAH        MOCLDY    52  37  56 SE6       29.94S
HENDERSON      MOCLDY    48  34  57 SE6       29.98S
OWENSBORO      PTCLDY    49  36  61 E6        29.99F
HOPKINSVILLE   CLEAR     48  36  64 E7        29.97F
BOWLING GREEN  MOCLDY    45  36  70 NE3       30.00S
GLASGOW        NOT AVBL
$$

KYZ024-025-028>034-038-045-046-053-241000-
NORTH CENTRAL KENTUCKY

CITY           SKY/WX    TMP DP  RH WIND       PRES   REMARKS
LOUISVILLE/SDF MOCLDY    52  34  50 SE6       30.03R
LOUISVILLE/LOU MOCLDY    55  33  43 E6        30.04R
FORT KNOX      MOCLDY    49  34  56 E7        30.01R
$$

KYZ035>037-039>044-047>052-055>060-089>105-241000-
NORTHEAST KENTUCKY

CITY           SKY/WX    TMP DP  RH WIND       PRES   REMARKS
LEXINGTON      MOCLDY    50  33  52 E8        30.04S
COVINGTON      CLOUDY    49  34  56 E9        30.06R
FRANKFORT      MOCLDY    49  35  58 E8        30.04R
$$

KYZ054-064>069-076>088-106>120-241000-
SOUTHEAST KENTUCKY

CITY           SKY/WX    TMP DP  RH WIND       PRES   REMARKS
JACKSON        PTCLDY    46  30  53 NE3       30.05F
LONDON         CLEAR     46  32  58 NE3       30.03F
SOMERSET       NOT AVBL
MIDDLESBORO    NOT AVBL
MONTICELLO     MOSUNNY   42  35  76 CALM      30.04S
$$




USA.gov is the U.S. government's official web portal to all federal, state and local government web resources and services.